Regional Weather Roundup
Issued by NWS Tiyan, Guam

Home | Current Version | Previous Version | Text Only | Print | Product List | Glossary On
Versions: 1 2 3 4 5 6 7 8 9 10 11 12 13 14 15 16 17 18 19 20 21 22 23 24 25 26 27 28 29 30 31 32 33 34 35 36 37 38 39 40 41 42 43 44 45 46 47 48 49 50
000
ASGM40 PGUM 212012
RWRGUM
WEATHER ROUNDUP FOR THE MARIANAS
NATIONAL WEATHER SERVICE TIYAN GU
600 AM CHST MON DEC 22 2014

GUZ001>004-212100-
MARIANA ISLANDS-

CITY           SKY/WX    TMP DP  RH WIND       PRES   REMARKS
GUAM AIRPORT   PTCLDY    82  75  78 E12       29.87R
ANDERSEN AFB   DRIZZLE   79  75  89 E16G24    29.88R
ROTA AIRPORT   PTCLDY    79  75  89 E12       29.89
TINIAN AP      PTCLDY    81  75  83 E10       29.87
SAIPAN AP      CLOUDY    81  75  83 E9G22     29.88R

$$




USA.gov is the U.S. government's official web portal to all federal, state and local government web resources and services.